Location: Mauries
(43.6188°N, 0.3322°W)
Time: 03:09:51
(UTC+00:00)

ISS - Visible Passes

Search period start: 09 March 2026 00:00
Search period end: 19 March 2026 00:00
Orbit: 416 x 427 km, 51.6° (Epoch: 8 March)

Date Brightness Start Highest point End Pass type
(mag) Time Alt. Az. Time Alt. Az. Time Alt. Az.
10 Mar -2.4 19:28:27 10° SSW 19:30:42 26° SSE 19:30:42 26° SSE visible
11 Mar -2.0 18:42:09 10° S 18:44:31 18° SE 18:46:23 12° E visible
11 Mar -1.8 20:17:39 10° WSW 20:19:24 28° WSW 20:19:24 28° WSW visible
12 Mar -3.9 19:30:33 10° SW 19:33:56 79° SE 19:34:53 44° ENE visible
13 Mar -3.4 18:43:36 10° SW 18:46:53 48° SE 18:50:10 10° ENE visible
13 Mar -1.9 20:20:42 10° W 20:23:12 31° NW 20:23:12 31° NW visible
14 Mar -2.8 19:33:18 10° W 19:36:35 44° NNW 19:38:21 23° NE visible
15 Mar -3.4 18:45:59 10° WSW 18:49:23 65° NNW 18:52:46 10° NE visible
15 Mar -1.5 20:23:53 10° WNW 20:26:21 23° NNW 20:26:21 23° NNW visible
16 Mar -1.9 19:36:23 10° WNW 19:39:19 26° NNW 19:41:15 16° NNE visible
17 Mar -2.2 18:48:52 10° W 18:51:59 33° NNW 18:55:07 10° NE visible
17 Mar -1.4 20:26:53 10° NW 20:29:02 20° NNW 20:29:02 20° NNW visible
18 Mar -1.6 19:39:25 10° WNW 19:42:06 21° N 19:43:46 15° NNE visible
18 Mar -0.1 21:16:43 10° NW 21:16:45 10° NW 21:16:45 10° NW visible
